{"data":{"norad_id":53993,"intl_designator":"2022-125AF","name":"STARLINK-5121","alt_names":[],"object_type":"PAYLOAD","status":"ACTIVE","operator":null,"country":"US","launch_date":"2022-10-05","launch_site_code":"AFWTR","launch_vehicle":null,"mission":null,"orbit_class":"UNKNOWN","rcs_meters":null,"size_class":null,"mass_kg":null,"dimensions":null,"purposes":["comms"],"wikipedia_slug":null,"has_3d_model":false,"image_url":null,"decayed_at":null,"tle_current":{"epoch":"2026-05-25T04:19:59.291040Z","epoch_age_seconds":73589,"freshness":"FRESH","line1":"1 53993U 22125AF  26145.18054735 -.00000509  00000+0 -13920-4 0  9996","line2":"2 53993  53.2153 225.4917 0001503  91.8800 268.2365 15.08830825201077","mean_motion":15.08830825,"eccentricity":0.0001503,"inclination_deg":53.2153,"raan_deg":225.4917,"arg_perigee_deg":91.88,"mean_anomaly_deg":268.2365,"bstar":-1.392e-5,"rev_number":20107,"period_min":95.43813502087,"perigee_km":538.73167177316,"apogee_km":540.81119504824,"semimajor_km":6917.9084334107,"source":"CELESTRAK","updated_at":"2026-05-25T13:38:17.622229Z"}}}